Flag for Germany Weather past 2 weeks in Mayen, Rhineland-Palatinate, Germany

Now
48 °F

Fog.


Feels Like: 46 °F
Forecast: 48 / 62 °F
Wind: 5 mph from Northwest

Location: Buechel

Current Time: Sep 2, 2015 at 7:21:13 AM

Latest Report: Sep 2, 2015 at 6:20 AM


Visibility: 0 mi

Pressure: 30.07 "Hg

Humidity: 100%

Dew point: 48 °F

Location of MayenLocation

Historic Weather in Mayen — Graph

°F

Mayen temperature yesterday

Maximum temperature yesterday: 68 °F (at 12:20 AM)
Minimum temperature yesterday: 52 °F (at 11:20 PM)
Average temperature yesterday: 59 °F

Past Weeks' High & Low Weather Summary

 TemperatureHumidityPressure
High84 °F (Aug 30, 2:20 PM)100% (Aug 23, 8:20 PM)30.30 "Hg (Aug 23, 8:20 PM)
Low48 °F (Aug 19, 5:20 AM)29% (Aug 22, 6:20 PM)29.65 "Hg (Aug 24, 12:20 PM)
Average63 °F72%30.02 "Hg
* Reported Aug 18 5:20 AM — Sep 2 5:20 AM, Mayen, Weather by CustomWeather, © 2015

Note: Actual official high and low records may vary slightly from our data, if they occured in-between our weather recording intervals... More about our weather records

Advertising

Mayen weather history for previous 24 hours

 ConditionsComfort  
Time TempWeatherWind HumidityBarometerVisibility
5:20 AM
Wed, Sep 2
48 °FFog.5 mph100%30.07 "Hg0 mi
4:20 AM50 °FCool.3 mph100%30.07 "Hg0 mi
3:20 AM50 °FCool.3 mph100%30.07 "Hg0 mi
2:20 AM52 °FCool.3 mph100%30.09 "Hg5 mi
1:20 AM52 °FCool.2 mph100%30.09 "Hg5 mi
12:20 AM52 °FCool.3 mph100%30.07 "Hg4 mi
11:20 PM
Tue, Sep 1
52 °FCool.5 mph100%30.07 "Hg4 mi
11:02 PM54 °FPassing clouds.5 mph94%30.07 "HgN/A
10:20 PM54 °FPassing clouds.5 mph100%30.07 "HgN/A
9:20 PM54 °FPartly cloudy.5 mph100%30.07 "HgN/A
9:02 PM55 °FBroken clouds.6 mph88%30.04 "HgN/A
8:20 PM55 °FSprinkles. Partly sunny.7 mph88%30.04 "HgN/A
7:20 PM57 °FPartly sunny.7 mph82%30.01 "HgN/A
6:20 PM61 °FBroken clouds.9 mph77%30.01 "HgN/A
5:20 PM59 °FBroken clouds.9 mph82%29.98 "HgN/A
4:20 PM59 °FPartly sunny.12 mph88%29.98 "HgN/A
3:20 PM59 °FLight rain. Partly sunny.9 mph88%29.95 "HgN/A
2:20 PM59 °FLight rain. Partly sunny.10 mph88%29.92 "HgN/A
2:01 PM57 °FPartly sunny.10 mph94%29.92 "HgN/A
1:20 PM59 °FPartly sunny.9 mph94%29.89 "HgN/A
12:20 PM59 °FLight rain. Fog.8 mph94%29.86 "Hg3 mi
11:20 AM57 °FRain. Fog.6 mph100%29.86 "Hg2 mi
10:48 AM57 °FRain. Fog.5 mph100%29.86 "Hg1 mi
10:20 AM57 °FRain. Fog.9 mph100%29.83 "Hg3 mi
9:57 AM57 °FStrong thunderstorms. Fog.8 mph100%29.83 "Hg2 mi
9:20 AM59 °FHeavy rain. Fog.6 mph100%29.83 "Hg3 mi
8:49 AM61 °FLight rain. Broken clouds.10 mph94%29.80 "Hg5 mi
8:20 AM61 °FFog.8 mph100%29.80 "Hg3 mi
7:48 AM61 °FLight rain. Broken clouds.6 mph100%29.83 "Hg1 mi
7:20 AM63 °FLight rain. Fog.3 mph100%29.83 "Hg2 mi
Weather by CustomWeather, © 2015

See weather overviewHow to use our weather pages